FW6259 Weather Reports


time (UTC)temp
C
wind
direction
speed
KPH
gust
KPH
rain 1hr
cm
rain 24hr
cm
rain mn
cm
humidity
%
barometer
mb
20260504044553 1 96 0.0 4.8 0.18 0.71 0.71 95 1023.0
20260504043109 1 88 0.0 4.8 0.15 0.66 0.66 95 1023.3
20260504041501 2 61 0.0 8.0 0.15 0.61 0.61 94 1023.2
20260504040057 2 39 1.6 6.4 0.13 0.56 0.56 94 1023.2
20260504034554 2 47 1.6 8.0 0.15 0.53 0.53 94 1023.3
20260504033046 2 69 1.6 6.4 0.18 0.51 0.51 94 1023.3
20260504031600 2 79 1.6 4.8 0.15 0.46 0.46 94 1023.4
20260504030109 2 60 1.6 8.0 0.15 0.43 0.43 93 1023.5
20260504024548 2 89 0.0 4.8 0.13 0.38 0.38 93 1023.4
20260504023059 2 90 0.0 8.0 0.10 0.33 0.33 92 1023.5
20260504021557 3 97 1.6 9.7 0.10 0.30 0.30 91 1023.6
20260504020043 3 55 1.6 8.0 0.08 0.28 0.28 91 1023.5
20260504014502 3 77 3.2 8.0 0.08 0.25 0.25 89 1023.5
20260504013055 3 49 1.6 9.7 0.08 0.23 0.23 89 1023.7
20260504011546 3 60 1.6 6.4 0.05 0.20 0.20 89 1023.8
20260504010200 3 39 0.0 4.8 0.08 0.20 0.20 89 1023.9
20260504004556 3 66 1.6 6.4 0.08 0.18 0.18 88 1023.9
20260504003046 3 68 0.0 8.0 0.05 0.15 0.15 87 1024.0
20260504001514 4 55 0.0 4.8 0.08 0.15 0.15 86 1024.1
20260504000003 4 68 0.0 3.2 0.05 0.13 0.13 86 1024.2
20260503234601 4 147 1.6 6.4 0.03 0.10 0.10 82 1024.3
20260503233053 4 23 0.0 4.8 0.05 0.10 0.10 83 1024.3
20260503231505 4 30 0.0 6.4 0.05 0.08 0.08 82 1024.6
20260503230114 4 142 0.0 3.2 0.05 0.08 0.08 83 1024.7
20260503224553 4 342 1.6 4.8 0.08 0.08 0.08 84 1024.6
20260503223100 4 23 0.0 3.2 0.05 0.05 0.05 81 1024.6
20260503221502 4 292 0.0 3.2 0.03 0.03 0.03 82 1024.7
20260503220052 5 188 1.6 3.2 0.03 0.03 0.03 80 1024.7
20260503214507 5 123 0.0 6.4 0.00 0.00 0.00 76 1024.8
20260503213056 5 253 1.6 6.4 0.00 0.00 0.00 73 1024.8
20260503211551 5 160 3.2 4.8 0.00 0.00 0.00 72 1024.8
20260503210047 6 188 4.8 8.0 0.00 0.00 0.00 66 1024.6
20260503204600 6 206 1.6 9.7 0.00 0.00 0.00 64 1024.7
20260503203050 6 105 4.8 9.7 0.00 0.00 0.00 62 1024.5
20260503201553 6 130 0.0 6.4 0.00 0.00 0.00 62 1024.5
20260503200044 6 140 1.6 8.0 0.00 0.00 0.00 62 1024.5
20260503194619 6 348 3.2 8.0 0.00 0.00 0.00 60 1024.4
20260503193051 6 117 3.2 8.0 0.00 0.00 0.00 59 1024.2
20260503191551 6 49 3.2 8.0 0.00 0.00 0.00 58 1024.2
20260503184556 6 162 3.2 9.7 0.00 0.00 0.00 59 1024.2
20260503183050 6 63 6.4 16.1 0.00 0.00 0.00 60 1024.1
20260503181607 6 68 6.4 12.9 0.00 0.00 0.00 59 1024.2
20260503180053 6 58 4.8 9.7 0.00 0.00 0.00 60 1024.0
20260503174504 6 21 3.2 11.3 0.00 0.00 0.00 62 1023.9
20260503173054 5 70 3.2 12.9 0.00 0.00 0.00 65 1024.0
20260503171551 5 117 1.6 6.4 0.00 0.00 0.00 65 1024.1
20260503170113 5 105 1.6 6.4 0.00 0.00 0.00 66 1024.0
20260503130147 3 249 4.8 11.3 0.00 0.00 0.00 65 1023.9
20260503081504 4 162 1.6 17.7 0.00 0.03 0.00 61 1023.2
20260503071603 5 181 9.7 32.2 0.00 0.03 0.03 59 1022.7
20260503054541 5 191 8.0 19.3 0.00 0.03 0.03 60 1022.1
20260503053058 5 163 14.5 25.7 0.00 0.03 0.03 59 1022.0
20260503051651 5 240 8.0 24.1 0.00 0.03 0.03 58 1021.9
20260503050147 6 210 12.9 25.7 0.00 0.03 0.03 56 1021.8